Location: Kermapucano
(48.0667°N, 3.3000°W)
Time: 19:43:44
(UTC+00:00)

Cosmos 1515 Rocket - Pass Details

Date: 29 November 2020
Orbit: 605 x 631 km, 82.5° (Epoch: 27 January)

Event Time Altitude Azimuth Distance (km) Brightness Sun altitude
Exits shadow 05:46:43 20° 337° (NNW) 1,453 5.1 -18.3°
Maximum altitude 05:49:37 57° 265° (W) 750 3.6 -17.8°
Drops below altitude 10° 05:53:59 10° 188° (S) 2,007 6.2 -17.1°
Sets 05:56:14 0° 184° (S) 2,909 7.1 -16.7°
